Location: Unspecified
(0.0000°N, 0.0000°E)
Time: 15:56:58
(UTC+00:00)

COMPASS 1 - Visible Passes

Search period start: 22 October 2019 00:00
Search period end: 01 November 2019 00:00
Orbit: 578 x 596 km, 97.5° (Epoch: 22 October)

Date Brightness Start Highest point End Pass type
(mag) Time Alt. Az. Time Alt. Az. Time Alt. Az.
22 Oct ? 18:30:25 10° SSW 18:34:09 31° WSW 18:37:51 10° NW visible
23 Oct ? 05:01:52 10° E 05:02:24 10° ESE 05:02:56 10° ESE visible
23 Oct ? 18:37:49 10° SSW 18:41:16 25° WSW 18:44:40 10° NW visible
24 Oct ? 05:07:30 10° ENE 05:09:30 13° ESE 05:11:31 10° SE visible
24 Oct ? 18:45:20 10° SSW 18:48:22 20° WSW 18:51:24 10° NW visible
25 Oct ? 05:13:56 10° ENE 05:16:37 17° ESE 05:19:19 10° SE visible
25 Oct ? 18:52:59 10° SW 18:55:29 15° WSW 18:57:58 10° WNW visible
26 Oct ? 19:00:57 10° SW 19:02:35 12° WSW 19:04:13 10° WNW visible
